Regional Weather Roundup
Issued by NWS

Home | Current Version | Previous Version | Text Only | Print | Product List | Glossary On
Versions: 1 2 3 4 5 6 7 8 9 10 11 12 13 14 15 16 17 18 19 20 21 22 23 24 25 26 27 28 29 30 31 32 33 34 35 36 37 38 39 40 41 42 43 44 45 46 47 48 49 50
000
ASUS42 KFFC 061903
RWRGA
WEATHER ROUNDUP FOR GEORGIA
NATIONAL WEATHER SERVICE PEACHTREE CITY GA
200 PM EST SAT FEB 06 2016

NOTE: "FAIR" INDICATES FEW OR NO CLOUDS BELOW 12,000 FEET WITH NO
SIGNIFICANT WEATHER AND/OR OBSTRUCTIONS TO VISIBILITY.

* = USE WITH CAUTION. THE STATIONS MARKED WITH AN ASTERISK MAY NOT
REPORT WEATHER SUCH AS PRECIPITATION, FOG, OR THUNDER AND ARE NOT
QUALITY CONTROLLED BY NWS.

THE REMARK "TC" DENOTES TEMPERATURE READING IN DEGREES CELSIUS.

GAZ001>058-062000-
NORTH GEORGIA

CITY           SKY/WX    TMP DP  RH WIND       PRES   REMARKS
ATLANTA        PTSUNNY   50  17  27 N9        30.28F
ATHENS         SUNNY     50  19  29 N6        30.29F
CHAMBLEE       SUNNY     48  18  30 CALM      30.28F
PEACHTREE CITY SUNNY     50  18  28 NE6       30.27F
ROME             N/A    N/A N/A N/A MISG      30.31F
WEST ATLANTA   SUNNY     50  17  27 N9        30.28F
GAINESVILLE    SUNNY     48  16  27 N5        30.29F
CARTERSVILLE   SUNNY     50  18  28 VRB6      30.31F


CITY           SKY/WX    TMP DP  RH WIND       PRES   REMARKS
LAWRENCEVILLE* SUNNY     48  18  29 NE9       30.29F
MARIETTA       PTSUNNY   48  15  26 NW3       30.28F
KENNESAW*      MOSUNNY   48  18  29 VRB5      30.30F
BLAIRSVILLE*     N/A     47  32  56 N3        30.28F
$$

GAZ059>098-102>109-062000-
CENTRAL GEORGIA

CITY           SKY/WX    TMP DP  RH WIND       PRES   REMARKS
AUGUSTA-BUSH   CLOUDY    50  24  36 E12       30.27F
AUGUSTA-DANIEL PTSUNNY   54  22  28 NE10      30.26F
COLUMBUS       SUNNY     52  16  24 E6        30.25F
MACON          CLOUDY    50  23  34 N12       30.26F
ROBINS AFB     PTSUNNY   50  18  27 E5        30.25F


CITY           SKY/WX    TMP DP  RH WIND       PRES   REMARKS
LAGRANGE*      SUNNY     54  26  34 CALM      30.26F
SYLVANIA*      RAIN      47  37  67 CALM      30.29F
MILLEDGEVILLE* PTSUNNY   52  21  30 NE3       30.27F
$$

GAZ099>101-110>166-062000-
SOUTH GEORGIA

CITY           SKY/WX    TMP DP  RH WIND       PRES   REMARKS
SAVANNAH       LGT RAIN  49  36  61 NE8       30.26F
VALDOSTA       CLOUDY    53  35  50 N7        30.22F
ALMA           CLOUDY    51  31  46 VRB5      30.24F
ST SIMONS      CLOUDY    52  44  74 NE17G26   30.20F
FT STEWART     CLOUDY    51  31  46 N6        30.22F
ALBANY         CLOUDY    50  24  36 NE5       30.29F
HUNTER AFB     CLOUDY    48  36  61 NE7       30.23F
MOODY AFB      CLOUDY    52  34  50 N8        30.21F
BRUNSWICK      CLOUDY    54  43  66 NE15G21   30.22F


CITY           SKY/WX    TMP DP  RH WIND       PRES   REMARKS
BAINBRIDGE*    CLOUDY    48  32  53 N5        30.29F
MOULTRIE*      CLOUDY    45  37  76 N5        30.26F
VIDALIA*       DRIZZLE   46  30  53 NE7       30.27F
WAYCROSS*      CLOUDY    55  38  54 E9        30.23F
DOUGLAS*       CLOUDY    52  30  43 NE10      30.25F
$$



USA.gov is the U.S. government's official web portal to all federal, state and local government web resources and services.